Location: Ferchesar
(52.6477°N, 12.4298°E)
Time: 18:40:34
(UTC+01:00)

A-11 Canister half - Pass Details

Date: 03 December 2021
Orbit: 1516 x 1684 km, 47.2° (Epoch: 22 January)

Event Time Altitude Azimuth Distance (km) Brightness Sun altitude
Rises 06:35:36 0° 205° (SSW) 4,751 11.5 -12.3°
Reaches altitude 10° 06:39:07 10° 195° (SSW) 3,795 11.1 -11.8°
Maximum altitude 06:47:06 30° 139° (SE) 2,597 11.0 -10.7°
Drops below altitude 10° 06:55:17 10° 83° (E) 3,912 12.1 -9.5°
Sets 06:58:57 0° 74° (ENE) 4,919 12.5 -9.0°
